Skip Page Navigation
NASA JPL Caltech
NASA Logo - Jet Propulsion Laboratory + View the NASA Portal
+ Center for Near-Earth Object Studies
JPL Home Earth Solar System Stars & Galaxies Technology
JPL Solar System Dynamics
BODIES ORBITS EPHEMERIDES TOOLS PHYSICAL DATA DISCOVERY FAQ SITE MAP
JPL Small-Body Database Browser
Search: [ help ]  
103771 (2000 DZ1)
Classification: Main-belt Asteroid          SPK-ID: 2103771
Ephemeris | Orbit Diagram | Orbital Elements | Mission Design | Physical Parameters | Discovery Circumstances | Close-Approach Data ]

[ hide orbit diagram ]

For accurate long-term ephemerides, please instead use our Horizons system.This orbit viewer was implemented using two-body methods, and hence should not be used for determining accurate long-term trajectories (over several years or decades) or planetary encounter circumstances.


Orbital Elements at Epoch 2459200.5 (2020-Dec-17.0) TDB
Reference: JPL 22 (heliocentric ecliptic J2000)
 Element Value Uncertainty (1-sigma)   Units 
e .1440848995484594 4.5362e-08  
a 3.029158867108142 1.8227e-08 au
q 2.59270281602454 1.4152e-07 au
i 1.974839530282607 5.03e-06 deg
node 342.6299563012982 0.00012181 deg
peri 148.895478750534 0.00012352 deg
M 353.3713574709583 1.7746e-05 deg
tp 2459235.957131773639
(2021-Jan-21.45713177)
9.4926e-05 TDB
period 1925.668397803236
5.27
1.7381e-05
4.759e-08
d
yr
n .1869480749700628 1.6874e-09 deg/d
Q 3.465614918191743 2.0854e-08 au
  Orbit Determination Parameters
   # obs. used (total)      536  
   data-arc span      8183 days (22.40 yr)  
   first obs. used      1998-10-16  
   last obs. used      2021-03-12  
   planetary ephem.      DE441  
   SB-pert. ephem.      SB441-N16  
   condition code      0  
   norm. resid. RMS      .53757  
   source      ORB  
   producer      Otto Matic  
   solution date      2021-Apr-13 15:48:30  

Additional Information
 Earth MOID = 1.60743 au 
 Jupiter MOID = 1.57923 au 
 T_jup = 3.227 
[ show covariance matrix ]

Ephemeris | Orbit Diagram | Orbital Elements | Mission Design | Physical Parameters | Discovery Circumstances | Close-Approach Data ]

Physical Parameter Table
Parameter Symbol Value Units Sigma Reference Notes
absolute magnitude H 15.5   n/a MPO453491  

103771 (2000 DZ1)          Discovered 2000-Feb-26 by Spacewatch at Kitt Peak
Reference: 20051019/Numbers.arcLast Updated: 2005-10-26

[ show close-approach data ]
Alternate Designations
 2000 DZ1 = 1998 UW10 
Ephemeris | Orbit Diagram | Orbital Elements | Mission Design | Physical Parameters | Discovery Circumstances | Close-Approach Data ]
ABOUT SSD CREDITS/AWARDS PRIVACY/COPYRIGHT GLOSSARY LINKS
FirstGov 2021-Apr-23 06:43 UT
(server date/time)  
NASA Home Page
Site Manager:   Ryan S. Park
Webmaster  Alan B. Chamberlin